Time,TemperatureF,DewpointF,PressureIn,WindDirection,WindDirectionDegrees,WindSpeedMPH,WindSpeedGustMPH,Humidity,HourlyPrecipIn,Conditions,Clouds,dailyrainin,SoftwareType,DateUTC
2013-08-24 00:02:00,76.6,72.9,30.01,North,-999,-999.0,-999.0,88,0.00,,,0.19,meteohub,2013-08-24 05:02:00,
2013-08-24 00:07:00,76.6,72.9,30.01,North,-999,-999.0,-999.0,88,0.00,,,0.00,meteohub,2013-08-24 05:07:00,
2013-08-24 00:12:00,76.5,73.0,30.01,North,-999,-999.0,-999.0,89,0.00,,,0.00,meteohub,2013-08-24 05:12:00,
2013-08-24 00:17:00,76.3,72.9,30.01,North,-999,-999.0,-999.0,89,0.00,,,0.00,meteohub,2013-08-24 05:17:00,
2013-08-24 00:22:00,76.1,72.7,30.01,North,-999,-999.0,-999.0,89,0.00,,,0.00,meteohub,2013-08-24 05:22:00,
2013-08-24 00:27:00,75.9,72.9,30.01,North,-999,-999.0,-999.0,90,0.00,,,0.00,meteohub,2013-08-24 05:27:00,
2013-08-24 00:32:00,75.7,72.7,30.01,North,-999,-999.0,-999.0,90,0.00,,,0.00,meteohub,2013-08-24 05:32:00,
2013-08-24 00:37:00,75.6,72.7,30.01,North,-999,-999.0,-999.0,91,0.00,,,0.00,meteohub,2013-08-24 05:37:00,
2013-08-24 00:42:00,75.6,72.7,30.01,North,-999,-999.0,-999.0,91,0.00,,,0.00,meteohub,2013-08-24 05:42:00,
2013-08-24 00:47:00,75.4,72.5,30.01,North,-999,-999.0,-999.0,91,0.00,,,0.00,meteohub,2013-08-24 05:47:00,
2013-08-24 00:52:00,75.4,72.9,30.01,North,-999,-999.0,-999.0,92,0.00,,,0.00,meteohub,2013-08-24 05:52:00,
2013-08-24 00:57:00,75.2,72.7,30.01,North,-999,-999.0,-999.0,92,0.00,,,0.00,meteohub,2013-08-24 05:57:00,
2013-08-24 01:02:00,75.0,72.5,30.00,North,-999,-999.0,-999.0,92,0.00,,,0.00,meteohub,2013-08-24 06:02:00,
2013-08-24 01:07:00,75.0,72.5,30.00,North,-999,-999.0,-999.0,92,0.00,,,0.00,meteohub,2013-08-24 06:07:00,
2013-08-24 01:12:00,75.0,72.5,30.00,North,-999,-999.0,-999.0,92,0.00,,,0.00,meteohub,2013-08-24 06:12:00,
2013-08-24 01:17:00,75.0,72.5,30.00,North,-999,-999.0,-999.0,92,0.00,,,0.00,meteohub,2013-08-24 06:17:00,
2013-08-24 01:22:00,74.8,72.3,30.00,North,-999,-999.0,-999.0,92,0.00,,,0.00,meteohub,2013-08-24 06:22:00,
2013-08-24 01:27:00,74.8,72.3,30.00,North,-999,-999.0,-999.0,92,0.00,,,0.00,meteohub,2013-08-24 06:27:00,
2013-08-24 01:32:00,74.8,72.3,29.99,North,-999,-999.0,-999.0,92,0.00,,,0.00,meteohub,2013-08-24 06:32:00,
2013-08-24 01:37:00,74.7,72.5,29.99,North,-999,-999.0,-999.0,93,0.00,,,0.00,meteohub,2013-08-24 06:37:00,
2013-08-24 01:42:00,74.7,72.5,29.99,North,-999,-999.0,-999.0,93,0.00,,,0.00,meteohub,2013-08-24 06:42:00,
2013-08-24 01:47:00,74.7,72.5,29.99,North,-999,-999.0,-999.0,93,0.00,,,0.00,meteohub,2013-08-24 06:47:00,
2013-08-24 01:52:00,74.7,72.5,29.99,North,-999,-999.0,-999.0,93,0.00,,,0.00,meteohub,2013-08-24 06:52:00,
2013-08-24 01:57:00,74.7,72.5,29.99,North,-999,-999.0,-999.0,93,0.00,,,0.00,meteohub,2013-08-24 06:57:00,
2013-08-24 02:02:00,74.7,72.9,29.99,North,-999,-999.0,-999.0,94,0.00,,,0.00,meteohub,2013-08-24 07:02:00,
2013-08-24 02:07:00,74.7,72.9,29.99,North,-999,-999.0,-999.0,94,0.00,,,0.00,meteohub,2013-08-24 07:07:00,
2013-08-24 02:12:00,74.5,72.7,29.99,North,-999,-999.0,-999.0,94,0.00,,,0.00,meteohub,2013-08-24 07:12:00,
2013-08-24 02:17:00,74.5,72.7,29.99,North,-999,-999.0,-999.0,94,0.00,,,0.00,meteohub,2013-08-24 07:17:00,
2013-08-24 02:22:00,74.5,72.7,29.99,North,-999,-999.0,-999.0,94,0.00,,,0.00,meteohub,2013-08-24 07:22:00,
2013-08-24 02:27:00,74.5,72.7,29.99,North,-999,-999.0,-999.0,94,0.00,,,0.00,meteohub,2013-08-24 07:27:00,
2013-08-24 02:32:00,74.5,72.7,29.99,North,-999,-999.0,-999.0,94,0.00,,,0.00,meteohub,2013-08-24 07:32:00,
2013-08-24 02:37:00,74.5,73.0,29.99,North,-999,-999.0,-999.0,95,0.00,,,0.00,meteohub,2013-08-24 07:37:00,
2013-08-24 02:42:00,74.5,73.0,29.99,North,-999,-999.0,-999.0,95,0.00,,,0.00,meteohub,2013-08-24 07:42:00,
2013-08-24 02:47:00,74.5,73.0,29.99,North,-999,-999.0,-999.0,95,0.00,,,0.00,meteohub,2013-08-24 07:47:00,
2013-08-24 02:52:00,74.5,73.0,29.99,North,-999,-999.0,-999.0,95,0.00,,,0.00,meteohub,2013-08-24 07:52:00,
2013-08-24 02:57:00,74.5,73.0,29.99,North,-999,-999.0,-999.0,95,0.00,,,0.00,meteohub,2013-08-24 07:57:00,
2013-08-24 03:02:00,74.3,72.9,29.98,North,-999,-999.0,-999.0,95,0.00,,,0.00,meteohub,2013-08-24 08:02:00,
2013-08-24 03:07:00,74.3,72.9,29.98,North,-999,-999.0,-999.0,95,0.00,,,0.00,meteohub,2013-08-24 08:07:00,
2013-08-24 03:12:00,74.3,72.9,29.98,North,-999,-999.0,-999.0,95,0.00,,,0.00,meteohub,2013-08-24 08:12:00,
2013-08-24 03:17:00,74.3,72.9,29.98,North,-999,-999.0,-999.0,95,0.00,,,0.00,meteohub,2013-08-24 08:17:00,
2013-08-24 03:22:00,74.3,72.9,29.98,North,-999,-999.0,-999.0,95,0.00,,,0.00,meteohub,2013-08-24 08:22:00,
2013-08-24 03:27:00,74.1,72.7,29.98,North,-999,-999.0,-999.0,95,0.00,,,0.00,meteohub,2013-08-24 08:27:00,
2013-08-24 03:32:00,74.1,72.7,29.98,North,-999,-999.0,-999.0,95,0.00,,,0.00,meteohub,2013-08-24 08:32:00,
2013-08-24 03:38:00,74.1,72.7,29.98,North,-999,-999.0,-999.0,95,0.00,,,0.00,meteohub,2013-08-24 08:38:00,
2013-08-24 03:43:00,74.1,72.7,29.98,North,-999,-999.0,-999.0,95,0.00,,,0.00,meteohub,2013-08-24 08:43:00,
2013-08-24 03:48:00,74.1,72.7,29.98,North,-999,-999.0,-999.0,95,0.00,,,0.00,meteohub,2013-08-24 08:48:00,
2013-08-24 03:53:00,74.1,72.7,29.98,North,-999,-999.0,-999.0,95,0.00,,,0.00,meteohub,2013-08-24 08:53:00,
2013-08-24 03:58:00,73.9,72.5,29.98,North,-999,-999.0,-999.0,95,0.00,,,0.00,meteohub,2013-08-24 08:58:00,
2013-08-24 04:03:00,74.1,72.9,29.98,North,-999,-999.0,-999.0,96,0.00,,,0.00,meteohub,2013-08-24 09:03:00,
2013-08-24 04:08:00,74.1,72.9,29.98,North,-999,-999.0,-999.0,96,0.00,,,0.00,meteohub,2013-08-24 09:08:00,
2013-08-24 04:13:00,74.1,72.9,29.98,North,-999,-999.0,-999.0,96,0.00,,,0.00,meteohub,2013-08-24 09:13:00,
2013-08-24 04:18:00,74.1,72.9,29.98,North,-999,-999.0,-999.0,96,0.00,,,0.00,meteohub,2013-08-24 09:18:00,
2013-08-24 04:23:00,74.5,73.2,29.98,North,-999,-999.0,-999.0,96,0.00,,,0.00,meteohub,2013-08-24 09:23:00,
2013-08-24 04:28:00,75.0,73.8,29.98,North,-999,-999.0,-999.0,96,0.00,,,0.00,meteohub,2013-08-24 09:28:00,
2013-08-24 04:33:00,75.6,73.9,29.99,North,-999,-999.0,-999.0,95,0.00,,,0.00,meteohub,2013-08-24 09:33:00,
2013-08-24 04:38:00,75.7,74.1,29.99,North,-999,-999.0,-999.0,95,0.00,,,0.00,meteohub,2013-08-24 09:38:00,
2013-08-24 04:43:00,75.6,73.9,29.99,North,-999,-999.0,-999.0,95,0.01,,,0.01,meteohub,2013-08-24 09:43:00,
2013-08-24 04:48:00,74.5,72.7,29.99,North,-999,-999.0,-999.0,94,0.09,,,0.09,meteohub,2013-08-24 09:48:00,
2013-08-24 04:53:00,74.1,72.7,29.99,North,-999,-999.0,-999.0,95,0.10,,,0.10,meteohub,2013-08-24 09:53:00,
2013-08-24 04:58:00,73.9,72.7,29.99,North,-999,-999.0,-999.0,96,0.11,,,0.11,meteohub,2013-08-24 09:58:00,
2013-08-24 05:03:00,73.8,72.5,29.99,North,-999,-999.0,-999.0,96,0.11,,,0.11,meteohub,2013-08-24 10:03:00,
2013-08-24 05:08:00,73.9,73.0,29.99,North,-999,-999.0,-999.0,97,0.11,,,0.11,meteohub,2013-08-24 10:08:00,
2013-08-24 05:13:00,73.8,72.9,29.99,North,-999,-999.0,-999.0,97,0.16,,,0.16,meteohub,2013-08-24 10:13:00,
2013-08-24 05:18:00,73.8,72.9,29.99,North,-999,-999.0,-999.0,97,0.24,,,0.24,meteohub,2013-08-24 10:18:00,
2013-08-24 05:23:00,73.8,73.2,29.99,North,-999,-999.0,-999.0,98,0.24,,,0.24,meteohub,2013-08-24 10:23:00,
2013-08-24 05:28:00,73.8,73.2,29.99,North,-999,-999.0,-999.0,98,0.24,,,0.24,meteohub,2013-08-24 10:28:00,
2013-08-24 05:33:00,73.8,73.2,30.00,North,-999,-999.0,-999.0,98,0.24,,,0.24,meteohub,2013-08-24 10:33:00,
2013-08-24 05:38:00,73.9,73.4,30.00,North,-999,-999.0,-999.0,98,0.23,,,0.24,meteohub,2013-08-24 10:38:00,
2013-08-24 05:43:00,73.9,73.6,30.00,North,-999,-999.0,-999.0,99,0.23,,,0.24,meteohub,2013-08-24 10:43:00,
2013-08-24 05:48:00,74.1,73.8,30.00,North,-999,-999.0,-999.0,99,0.14,,,0.24,meteohub,2013-08-24 10:48:00,
2013-08-24 05:53:00,74.1,73.8,30.00,North,-999,-999.0,-999.0,99,0.13,,,0.24,meteohub,2013-08-24 10:53:00,
2013-08-24 05:58:00,73.9,73.6,30.00,North,-999,-999.0,-999.0,99,0.15,,,0.26,meteohub,2013-08-24 10:58:00,
2013-08-24 06:03:00,73.9,73.6,30.01,North,-999,-999.0,-999.0,99,0.20,,,0.31,meteohub,2013-08-24 11:03:00,
2013-08-24 06:08:00,73.8,73.4,30.01,North,-999,-999.0,-999.0,99,0.20,,,0.32,meteohub,2013-08-24 11:08:00,
2013-08-24 06:14:00,73.8,73.4,30.01,North,-999,-999.0,-999.0,99,0.12,,,0.32,meteohub,2013-08-24 11:14:00,
2013-08-24 06:19:00,73.8,73.4,30.01,North,-999,-999.0,-999.0,99,0.08,,,0.32,meteohub,2013-08-24 11:19:00,
2013-08-24 06:24:00,73.8,73.4,30.01,North,-999,-999.0,-999.0,99,0.08,,,0.32,meteohub,2013-08-24 11:24:00,
2013-08-24 06:29:00,73.9,73.6,30.01,North,-999,-999.0,-999.0,99,0.08,,,0.32,meteohub,2013-08-24 11:29:00,
2013-08-24 06:34:00,74.1,73.8,30.01,North,-999,-999.0,-999.0,99,0.13,,,0.37,meteohub,2013-08-24 11:34:00,
2013-08-24 06:39:00,74.1,73.8,30.01,North,-999,-999.0,-999.0,99,0.15,,,0.39,meteohub,2013-08-24 11:39:00,
2013-08-24 06:44:00,74.1,73.8,30.01,North,-999,-999.0,-999.0,99,0.17,,,0.41,meteohub,2013-08-24 11:44:00,
2013-08-24 06:49:00,74.1,73.8,30.01,North,-999,-999.0,-999.0,99,0.17,,,0.41,meteohub,2013-08-24 11:49:00,
2013-08-24 06:54:00,74.1,73.8,30.01,North,-999,-999.0,-999.0,99,0.17,,,0.41,meteohub,2013-08-24 11:54:00,
2013-08-24 06:59:00,74.1,74.1,30.01,North,-999,-999.0,-999.0,100,0.14,,,0.42,meteohub,2013-08-24 11:59:00,
2013-08-24 07:04:00,74.3,74.3,30.02,North,-999,-999.0,-999.0,100,0.11,,,0.42,meteohub,2013-08-24 12:04:00,
2013-08-24 07:09:00,74.3,74.3,30.02,North,-999,-999.0,-999.0,100,0.10,,,0.42,meteohub,2013-08-24 12:09:00,
2013-08-24 07:14:00,74.3,74.3,30.02,North,-999,-999.0,-999.0,100,0.10,,,0.42,meteohub,2013-08-24 12:14:00,
2013-08-24 07:19:00,74.5,74.5,30.02,North,-999,-999.0,-999.0,100,0.10,,,0.42,meteohub,2013-08-24 12:19:00,
2013-08-24 07:24:00,74.5,74.5,30.02,North,-999,-999.0,-999.0,100,0.10,,,0.42,meteohub,2013-08-24 12:24:00,
2013-08-24 07:29:00,74.5,74.5,30.02,North,-999,-999.0,-999.0,100,0.08,,,0.42,meteohub,2013-08-24 12:29:00,
2013-08-24 07:34:00,74.5,74.5,30.02,North,-999,-999.0,-999.0,100,0.04,,,0.42,meteohub,2013-08-24 12:34:00,
2013-08-24 07:39:00,74.5,74.5,30.02,North,-999,-999.0,-999.0,100,0.02,,,0.42,meteohub,2013-08-24 12:39:00,
2013-08-24 07:44:00,74.5,74.5,30.02,North,-999,-999.0,-999.0,100,0.01,,,0.42,meteohub,2013-08-24 12:44:00,
2013-08-24 07:49:00,74.5,74.5,30.02,North,-999,-999.0,-999.0,100,0.01,,,0.42,meteohub,2013-08-24 12:49:00,
2013-08-24 07:54:00,74.5,74.5,30.02,North,-999,-999.0,-999.0,100,0.01,,,0.42,meteohub,2013-08-24 12:54:00,
2013-08-24 07:59:00,74.5,74.5,30.04,North,-999,-999.0,-999.0,100,0.00,,,0.42,meteohub,2013-08-24 12:59:00,
2013-08-24 08:05:00,74.3,73.9,30.04,North,-999,-999.0,-999.0,99,0.00,,,0.42,meteohub,2013-08-24 13:05:00,
2013-08-24 08:10:00,73.9,73.6,30.04,North,-999,-999.0,-999.0,99,0.00,,,0.42,meteohub,2013-08-24 13:10:00,
2013-08-24 08:15:00,73.8,73.4,30.04,North,-999,-999.0,-999.0,99,0.00,,,0.42,meteohub,2013-08-24 13:15:00,
2013-08-24 08:20:00,73.6,73.2,30.04,North,-999,-999.0,-999.0,99,0.00,,,0.42,meteohub,2013-08-24 13:20:00,
2013-08-24 08:25:00,73.8,73.4,30.04,North,-999,-999.0,-999.0,99,0.00,,,0.42,meteohub,2013-08-24 13:25:00,
2013-08-24 08:30:00,73.8,73.4,30.04,North,-999,-999.0,-999.0,99,0.00,,,0.42,meteohub,2013-08-24 13:30:00,
2013-08-24 08:35:00,73.9,73.9,30.04,North,0,0.0,0.0,100,0.00,,,0.42,meteohub,2013-08-24 13:35:00,
2013-08-24 08:40:00,73.9,73.9,30.04,North,0,0.0,6.0,100,0.00,,,0.42,meteohub,2013-08-24 13:40:00,
2013-08-24 08:45:00,74.1,74.1,30.04,North,0,0.0,6.0,100,0.00,,,0.42,meteohub,2013-08-24 13:45:00,
2013-08-24 08:50:00,74.1,74.1,30.04,North,0,0.0,6.0,100,0.00,,,0.42,meteohub,2013-08-24 13:50:00,
2013-08-24 08:55:00,74.5,74.1,30.04,North,0,0.0,0.0,99,0.00,,,0.42,meteohub,2013-08-24 13:55:00,
2013-08-24 09:00:00,74.7,74.7,30.05,North,0,0.0,0.0,100,0.00,,,0.42,meteohub,2013-08-24 14:00:00,
2013-08-24 09:05:00,74.8,74.8,30.05,North,0,0.0,0.0,100,0.00,,,0.42,meteohub,2013-08-24 14:05:00,
2013-08-24 09:10:00,75.0,75.0,30.05,North,0,0.0,0.0,100,0.00,,,0.42,meteohub,2013-08-24 14:10:00,
2013-08-24 09:15:00,75.4,75.4,30.04,North,0,0.0,0.0,100,0.00,,,0.42,meteohub,2013-08-24 14:15:00,
2013-08-24 09:20:00,75.4,75.4,30.04,North,0,0.0,0.0,100,0.00,,,0.42,meteohub,2013-08-24 14:20:00,
2013-08-24 09:25:00,75.6,75.6,30.04,North,0,0.0,0.0,100,0.00,,,0.42,meteohub,2013-08-24 14:25:00,
2013-08-24 09:30:00,75.7,75.4,30.05,North,0,0.0,0.0,99,0.00,,,0.42,meteohub,2013-08-24 14:30:00,
2013-08-24 09:35:00,75.7,75.4,30.05,North,0,0.0,0.0,99,0.00,,,0.42,meteohub,2013-08-24 14:35:00,
2013-08-24 09:40:00,75.9,75.6,30.05,North,0,0.0,1.0,99,0.00,,,0.42,meteohub,2013-08-24 14:40:00,
2013-08-24 09:45:00,75.9,75.6,30.06,North,0,0.0,5.0,99,0.00,,,0.42,meteohub,2013-08-24 14:45:00,
2013-08-24 09:50:00,75.9,75.4,30.06,North,0,0.0,5.0,98,0.00,,,0.42,meteohub,2013-08-24 14:50:00,
2013-08-24 09:56:00,75.9,75.4,30.06,North,0,0.0,5.0,98,0.00,,,0.42,meteohub,2013-08-24 14:56:00,
2013-08-24 10:01:00,76.3,75.7,30.07,North,0,0.0,1.0,98,0.00,,,0.42,meteohub,2013-08-24 15:01:00,
2013-08-24 10:06:00,76.3,75.7,30.07,North,0,0.0,6.0,98,0.00,,,0.42,meteohub,2013-08-24 15:06:00,
2013-08-24 10:11:00,76.5,75.6,30.07,North,0,0.0,6.0,97,0.00,,,0.42,meteohub,2013-08-24 15:11:00,
2013-08-24 10:16:00,76.6,75.7,30.07,North,0,0.0,6.0,97,0.00,,,0.42,meteohub,2013-08-24 15:16:00,
2013-08-24 10:21:00,76.8,75.9,30.07,North,0,0.0,5.0,97,0.00,,,0.42,meteohub,2013-08-24 15:21:00,
2013-08-24 10:26:00,76.8,75.6,30.07,North,0,0.0,6.0,96,0.00,,,0.42,meteohub,2013-08-24 15:26:00,
2013-08-24 10:31:00,76.8,75.2,30.08,North,0,0.0,9.0,95,0.00,,,0.42,meteohub,2013-08-24 15:31:00,
2013-08-24 10:36:00,76.8,75.2,30.08,North,0,0.0,9.0,95,0.00,,,0.42,meteohub,2013-08-24 15:36:00,
2013-08-24 10:41:00,77.0,74.8,30.08,North,0,0.0,9.0,93,0.00,,,0.42,meteohub,2013-08-24 15:41:00,
2013-08-24 10:46:00,77.2,75.4,30.08,North,0,0.0,8.0,94,0.00,,,0.42,meteohub,2013-08-24 15:46:00,
2013-08-24 10:51:00,77.4,75.2,30.08,North,0,2.0,8.0,93,0.00,,,0.42,meteohub,2013-08-24 15:51:00,
2013-08-24 10:56:00,77.4,75.2,30.08,North,0,4.0,9.0,93,0.00,,,0.42,meteohub,2013-08-24 15:56:00,
2013-08-24 11:01:00,77.4,74.8,30.07,North,0,0.0,9.0,92,0.00,,,0.42,meteohub,2013-08-24 16:01:00,
2013-08-24 11:06:00,77.0,74.1,30.07,North,0,5.0,9.0,91,0.00,,,0.42,meteohub,2013-08-24 16:06:00,
2013-08-24 11:11:00,76.8,74.3,30.07,North,0,0.0,10.0,92,0.00,,,0.42,meteohub,2013-08-24 16:11:00,
2013-08-24 11:16:00,76.8,74.3,30.08,North,0,0.0,10.0,92,0.00,,,0.42,meteohub,2013-08-24 16:16:00,
2013-08-24 11:21:00,77.2,74.7,30.08,North,0,0.0,10.0,92,0.00,,,0.42,meteohub,2013-08-24 16:21:00,
2013-08-24 11:26:00,77.4,74.5,30.08,North,0,0.0,6.0,91,0.00,,,0.42,meteohub,2013-08-24 16:26:00,
2013-08-24 11:31:00,77.5,74.3,30.08,North,0,6.0,8.0,90,0.00,,,0.42,meteohub,2013-08-24 16:31:00,
2013-08-24 11:36:00,77.7,73.9,30.08,North,0,4.0,15.0,88,0.00,,,0.42,meteohub,2013-08-24 16:36:00,
2013-08-24 11:41:00,77.7,74.3,30.08,North,0,4.0,15.0,89,0.00,,,0.42,meteohub,2013-08-24 16:41:00,
2013-08-24 11:46:00,78.3,75.0,30.08,North,0,9.0,15.0,90,0.00,,,0.42,meteohub,2013-08-24 16:46:00,
2013-08-24 11:52:00,78.4,74.8,30.08,North,0,0.0,13.0,89,0.00,,,0.42,meteohub,2013-08-24 16:52:00,
2013-08-24 11:57:00,78.6,74.8,30.08,North,0,0.0,13.0,88,0.00,,,0.42,meteohub,2013-08-24 16:57:00,
2013-08-24 12:02:00,78.6,74.8,30.08,North,0,0.0,13.0,88,0.00,,,0.42,meteohub,2013-08-24 17:02:00,
2013-08-24 12:07:00,78.8,75.0,30.08,North,0,0.0,10.0,88,0.00,,,0.42,meteohub,2013-08-24 17:07:00,
2013-08-24 12:12:00,78.8,75.0,30.08,North,0,0.0,9.0,88,0.00,,,0.42,meteohub,2013-08-24 17:12:00,
2013-08-24 12:17:00,78.8,74.7,30.08,North,0,0.0,7.0,87,0.00,,,0.42,meteohub,2013-08-24 17:17:00,
2013-08-24 12:22:00,78.8,74.7,30.08,North,0,0.0,7.0,87,0.00,,,0.42,meteohub,2013-08-24 17:22:00,
2013-08-24 12:27:00,79.0,75.2,30.08,North,0,0.0,7.0,88,0.00,,,0.42,meteohub,2013-08-24 17:27:00,
2013-08-24 12:32:00,79.2,75.0,30.08,North,0,0.0,7.0,87,0.00,,,0.42,meteohub,2013-08-24 17:32:00,
2013-08-24 12:37:00,79.3,74.5,30.08,North,0,0.0,7.0,85,0.00,,,0.42,meteohub,2013-08-24 17:37:00,
2013-08-24 12:42:00,79.5,75.0,30.08,North,0,0.0,11.0,86,0.00,,,0.42,meteohub,2013-08-24 17:42:00,
2013-08-24 12:47:00,79.3,74.5,30.08,North,0,3.0,11.0,85,0.00,,,0.42,meteohub,2013-08-24 17:47:00,
2013-08-24 12:52:00,79.2,74.7,30.08,North,0,0.0,10.0,86,0.00,,,0.42,meteohub,2013-08-24 17:52:00,
2013-08-24 12:57:00,79.2,74.7,30.08,North,0,2.0,10.0,86,0.00,,,0.42,meteohub,2013-08-24 17:57:00,
2013-08-24 13:02:00,79.2,74.3,30.07,North,0,4.0,11.0,85,0.00,,,0.42,meteohub,2013-08-24 18:02:00,
2013-08-24 13:07:00,79.2,74.3,30.07,North,0,5.0,11.0,85,0.00,,,0.42,meteohub,2013-08-24 18:07:00,
2013-08-24 13:12:00,79.2,74.3,30.07,North,0,0.0,11.0,85,0.00,,,0.42,meteohub,2013-08-24 18:12:00,
2013-08-24 13:17:00,79.2,74.3,30.07,North,0,0.0,11.0,85,0.00,,,0.42,meteohub,2013-08-24 18:17:00,
2013-08-24 13:22:00,79.2,74.3,30.07,North,0,0.0,12.0,85,0.00,,,0.42,meteohub,2013-08-24 18:22:00,
2013-08-24 13:27:00,79.2,73.9,30.07,North,0,0.0,12.0,84,0.00,,,0.42,meteohub,2013-08-24 18:27:00,
2013-08-24 13:32:00,79.0,74.5,30.07,North,0,5.0,6.0,86,0.00,,,0.42,meteohub,2013-08-24 18:32:00,
2013-08-24 13:37:00,78.4,74.3,30.07,North,0,3.0,10.0,87,0.00,,,0.42,meteohub,2013-08-24 18:37:00,
2013-08-24 13:42:00,78.1,73.9,30.07,North,0,2.0,11.0,87,0.00,,,0.42,meteohub,2013-08-24 18:42:00,
2013-08-24 13:47:00,78.1,73.9,30.07,North,0,4.0,14.0,87,0.00,,,0.42,meteohub,2013-08-24 18:47:00,
2013-08-24 13:52:00,78.1,74.5,30.07,North,0,0.0,14.0,89,0.00,,,0.42,meteohub,2013-08-24 18:52:00,
2013-08-24 13:57:00,78.3,74.7,30.07,North,0,0.0,14.0,89,0.00,,,0.42,meteohub,2013-08-24 18:57:00,
2013-08-24 14:02:00,78.4,74.8,30.07,North,0,0.0,13.0,89,0.00,,,0.42,meteohub,2013-08-24 19:02:00,
2013-08-24 14:07:00,78.4,74.7,30.07,North,0,0.0,9.0,88,0.00,,,0.42,meteohub,2013-08-24 19:07:00,
2013-08-24 14:12:00,78.6,74.8,30.07,North,0,4.0,9.0,88,0.00,,,0.42,meteohub,2013-08-24 19:12:00,
2013-08-24 14:17:00,78.6,74.8,30.07,North,0,0.0,7.0,88,0.00,,,0.42,meteohub,2013-08-24 19:17:00,
2013-08-24 14:22:00,78.6,74.8,30.07,North,0,0.0,6.0,88,0.00,,,0.42,meteohub,2013-08-24 19:22:00,
2013-08-24 14:27:00,78.6,74.8,30.07,North,0,0.0,7.0,88,0.00,,,0.42,meteohub,2013-08-24 19:27:00,
2013-08-24 14:32:00,78.4,74.8,30.07,North,0,0.0,7.0,89,0.00,,,0.42,meteohub,2013-08-24 19:32:00,
2013-08-24 14:37:00,78.4,74.8,30.07,North,0,0.0,4.0,89,0.00,,,0.42,meteohub,2013-08-24 19:37:00,
2013-08-24 14:42:00,78.3,74.7,30.07,North,0,0.0,5.0,89,0.00,,,0.42,meteohub,2013-08-24 19:42:00,
2013-08-24 14:47:00,78.3,75.0,30.07,North,0,0.0,5.0,90,0.00,,,0.42,meteohub,2013-08-24 19:47:00,
2013-08-24 14:52:00,78.1,74.5,30.07,North,0,0.0,5.0,89,0.00,,,0.42,meteohub,2013-08-24 19:52:00,
2013-08-24 14:57:00,78.1,74.5,30.07,North,0,0.0,5.0,89,0.00,,,0.42,meteohub,2013-08-24 19:57:00,
2013-08-24 15:02:00,78.1,74.5,30.07,North,0,0.0,5.0,89,0.00,,,0.42,meteohub,2013-08-24 20:02:00,
2013-08-24 15:07:00,78.1,74.5,30.07,North,0,0.0,6.0,89,0.00,,,0.42,meteohub,2013-08-24 20:07:00,
2013-08-24 15:12:00,78.1,74.5,30.07,North,0,0.0,6.0,89,0.00,,,0.42,meteohub,2013-08-24 20:12:00,
2013-08-24 15:17:00,78.1,74.3,30.07,North,0,0.0,6.0,88,0.00,,,0.42,meteohub,2013-08-24 20:17:00,
2013-08-24 15:22:00,78.1,74.3,30.07,North,0,0.0,4.0,88,0.00,,,0.42,meteohub,2013-08-24 20:22:00,
2013-08-24 15:27:00,78.1,74.3,30.07,North,0,0.0,5.0,88,0.00,,,0.42,meteohub,2013-08-24 20:27:00,
2013-08-24 15:32:00,78.3,74.5,30.07,North,0,0.0,5.0,88,0.00,,,0.42,meteohub,2013-08-24 20:32:00,
2013-08-24 15:37:00,78.4,74.7,30.07,North,0,0.0,5.0,88,0.00,,,0.42,meteohub,2013-08-24 20:37:00,
2013-08-24 15:42:00,78.4,74.3,30.07,North,0,0.0,5.0,87,0.00,,,0.42,meteohub,2013-08-24 20:42:00,
2013-08-24 15:47:00,78.8,75.0,30.07,North,0,2.0,5.0,88,0.00,,,0.42,meteohub,2013-08-24 20:47:00,
2013-08-24 15:52:00,78.8,74.7,30.07,North,0,0.0,5.0,87,0.00,,,0.42,meteohub,2013-08-24 20:52:00,
2013-08-24 15:57:00,79.0,74.5,30.07,North,0,5.0,5.0,86,0.00,,,0.42,meteohub,2013-08-24 20:57:00,
2013-08-24 16:02:00,79.0,74.8,30.07,North,0,0.0,8.0,87,0.00,,,0.42,meteohub,2013-08-24 21:02:00,
2013-08-24 16:07:00,78.6,74.5,30.07,North,0,0.0,8.0,87,0.00,,,0.42,meteohub,2013-08-24 21:07:00,
2013-08-24 16:12:00,78.3,74.1,30.07,North,0,0.0,7.0,87,0.00,,,0.42,meteohub,2013-08-24 21:12:00,
2013-08-24 16:17:00,78.1,73.9,30.06,North,0,0.0,10.0,87,0.00,,,0.42,meteohub,2013-08-24 21:17:00,
2013-08-24 16:22:00,77.7,73.9,30.06,North,0,0.0,10.0,88,0.00,,,0.42,meteohub,2013-08-24 21:22:00,
2013-08-24 16:27:00,77.7,73.9,30.06,North,0,0.0,10.0,88,0.00,,,0.42,meteohub,2013-08-24 21:27:00,
2013-08-24 16:32:00,77.7,73.9,30.06,North,0,3.0,9.0,88,0.00,,,0.42,meteohub,2013-08-24 21:32:00,
2013-08-24 16:37:00,77.7,73.9,30.06,North,0,0.0,9.0,88,0.00,,,0.42,meteohub,2013-08-24 21:37:00,
2013-08-24 16:42:00,77.7,73.6,30.06,North,0,0.0,7.0,87,0.00,,,0.42,meteohub,2013-08-24 21:42:00,
2013-08-24 16:47:00,77.9,74.1,30.06,North,0,0.0,7.0,88,0.00,,,0.42,meteohub,2013-08-24 21:47:00,
2013-08-24 16:52:00,78.1,74.3,30.06,North,0,0.0,7.0,88,0.00,,,0.42,meteohub,2013-08-24 21:52:00,
2013-08-24 16:57:00,78.3,74.1,30.06,North,0,0.0,7.0,87,0.00,,,0.42,meteohub,2013-08-24 21:57:00,
2013-08-24 17:02:00,78.3,74.1,30.06,North,0,0.0,6.0,87,0.00,,,0.42,meteohub,2013-08-24 22:02:00,
2013-08-24 17:07:00,78.4,74.3,30.06,North,0,0.0,1.0,87,0.00,,,0.42,meteohub,2013-08-24 22:07:00,
2013-08-24 17:12:00,78.6,74.1,30.06,North,0,0.0,2.0,86,0.00,,,0.42,meteohub,2013-08-24 22:12:00,
2013-08-24 17:17:00,78.6,73.8,30.06,North,0,0.0,6.0,85,0.00,,,0.42,meteohub,2013-08-24 22:17:00,
2013-08-24 17:22:00,78.6,73.4,30.06,North,0,5.0,6.0,84,0.00,,,0.42,meteohub,2013-08-24 22:22:00,
2013-08-24 17:27:00,78.6,73.0,30.06,North,0,0.0,10.0,83,0.00,,,0.42,meteohub,2013-08-24 22:27:00,
2013-08-24 17:32:00,79.0,73.4,30.05,North,0,0.0,10.0,83,0.00,,,0.42,meteohub,2013-08-24 22:32:00,
2013-08-24 17:37:00,79.0,73.4,30.05,North,0,3.0,10.0,83,0.00,,,0.42,meteohub,2013-08-24 22:37:00,
2013-08-24 17:42:00,79.2,73.2,30.05,North,0,2.0,8.0,82,0.00,,,0.42,meteohub,2013-08-24 22:42:00,
2013-08-24 17:47:00,79.0,73.4,30.06,North,0,0.0,8.0,83,0.00,,,0.42,meteohub,2013-08-24 22:47:00,
2013-08-24 17:52:00,78.6,73.0,30.06,North,0,0.0,9.0,83,0.00,,,0.42,meteohub,2013-08-24 22:52:00,
2013-08-24 17:57:00,79.0,73.4,30.06,North,0,2.0,9.0,83,0.00,,,0.42,meteohub,2013-08-24 22:57:00,
2013-08-24 18:02:00,79.2,73.6,30.06,North,0,0.0,8.0,83,0.00,,,0.42,meteohub,2013-08-24 23:02:00,
2013-08-24 18:07:00,79.3,73.0,30.06,North,0,3.0,8.0,81,0.00,,,0.42,meteohub,2013-08-24 23:07:00,
2013-08-24 18:12:00,79.5,73.6,30.06,North,0,0.0,8.0,82,0.00,,,0.42,meteohub,2013-08-24 23:12:00,
2013-08-24 18:17:00,79.3,73.4,30.06,North,0,0.0,5.0,82,0.00,,,0.42,meteohub,2013-08-24 23:17:00,
2013-08-24 18:22:00,79.0,73.4,30.06,North,0,0.0,5.0,83,0.00,,,0.42,meteohub,2013-08-24 23:22:00,
2013-08-24 18:27:00,78.8,73.2,30.06,North,0,0.0,5.0,83,0.00,,,0.42,meteohub,2013-08-24 23:27:00,
2013-08-24 18:32:00,78.6,73.4,30.06,North,0,0.0,1.0,84,0.00,,,0.42,meteohub,2013-08-24 23:32:00,
2013-08-24 18:37:00,78.6,73.4,30.06,North,0,4.0,4.0,84,0.00,,,0.42,meteohub,2013-08-24 23:37:00,
2013-08-24 18:42:00,78.6,73.8,30.06,North,0,4.0,6.0,85,0.00,,,0.42,meteohub,2013-08-24 23:42:00,
2013-08-24 18:47:00,78.6,73.8,30.05,North,0,0.0,7.0,85,0.00,,,0.42,meteohub,2013-08-24 23:47:00,
2013-08-24 18:52:00,78.6,74.1,30.05,North,0,0.0,7.0,86,0.00,,,0.42,meteohub,2013-08-24 23:52:00,
2013-08-24 18:57:00,78.4,73.9,30.05,North,0,2.0,7.0,86,0.00,,,0.42,meteohub,2013-08-24 23:57:00,
2013-08-24 19:02:00,78.3,73.8,30.05,North,0,2.0,8.0,86,0.00,,,0.42,meteohub,2013-08-25 00:02:00,
2013-08-24 19:07:00,78.3,74.1,30.05,North,0,0.0,8.0,87,0.00,,,0.42,meteohub,2013-08-25 00:07:00,
2013-08-24 19:12:00,78.3,74.1,30.05,North,0,0.0,8.0,87,0.00,,,0.42,meteohub,2013-08-25 00:12:00,
2013-08-24 19:17:00,78.1,73.9,30.06,North,0,0.0,5.0,87,0.00,,,0.42,meteohub,2013-08-25 00:17:00,
2013-08-24 19:22:00,78.1,73.9,30.06,North,-999,-999.0,5.0,87,0.00,,,0.42,meteohub,2013-08-25 00:22:00,
2013-08-24 19:27:00,78.1,74.3,30.06,North,-999,-999.0,0.0,88,0.00,,,0.42,meteohub,2013-08-25 00:27:00,
2013-08-24 19:32:00,78.1,74.3,30.06,North,-999,-999.0,-999.0,88,0.00,,,0.42,meteohub,2013-08-25 00:32:00,
2013-08-24 19:37:00,77.9,74.1,30.06,North,-999,-999.0,-999.0,88,0.00,,,0.42,meteohub,2013-08-25 00:37:00,
2013-08-24 19:42:00,77.9,74.1,30.06,North,-999,-999.0,-999.0,88,0.00,,,0.42,meteohub,2013-08-25 00:42:00,
2013-08-24 19:47:00,77.7,73.9,30.06,North,-999,-999.0,-999.0,88,0.00,,,0.42,meteohub,2013-08-25 00:47:00,
2013-08-24 19:52:00,77.7,73.9,30.06,North,-999,-999.0,-999.0,88,0.00,,,0.42,meteohub,2013-08-25 00:52:00,
2013-08-24 19:57:00,77.7,73.9,30.06,North,-999,-999.0,-999.0,88,0.00,,,0.42,meteohub,2013-08-25 00:57:00,
2013-08-24 20:02:00,77.7,73.9,30.06,North,-999,-999.0,-999.0,88,0.00,,,0.42,meteohub,2013-08-25 01:02:00,
2013-08-24 20:07:00,77.7,73.9,30.06,North,-999,-999.0,-999.0,88,0.00,,,0.42,meteohub,2013-08-25 01:07:00,
2013-08-24 20:12:00,77.7,73.6,30.06,North,-999,-999.0,-999.0,87,0.00,,,0.42,meteohub,2013-08-25 01:12:00,
2013-08-24 20:17:00,77.7,73.9,30.07,North,-999,-999.0,-999.0,88,0.00,,,0.42,meteohub,2013-08-25 01:17:00,
2013-08-24 20:22:00,77.7,73.6,30.07,North,-999,-999.0,-999.0,87,0.00,,,0.42,meteohub,2013-08-25 01:22:00,
2013-08-24 20:27:00,77.7,73.6,30.07,North,-999,-999.0,-999.0,87,0.00,,,0.42,meteohub,2013-08-25 01:27:00,
2013-08-24 20:32:00,77.7,73.6,30.07,North,-999,-999.0,-999.0,87,0.00,,,0.42,meteohub,2013-08-25 01:32:00,
2013-08-24 20:37:00,77.7,73.6,30.07,North,-999,-999.0,-999.0,87,0.00,,,0.42,meteohub,2013-08-25 01:37:00,
2013-08-24 20:42:00,77.7,73.6,30.07,North,-999,-999.0,-999.0,87,0.00,,,0.42,meteohub,2013-08-25 01:42:00,
2013-08-24 20:47:00,77.7,73.6,30.08,North,-999,-999.0,-999.0,87,0.00,,,0.42,meteohub,2013-08-25 01:47:00,
2013-08-24 20:52:00,77.5,73.8,30.08,North,-999,-999.0,-999.0,88,0.00,,,0.42,meteohub,2013-08-25 01:52:00,
2013-08-24 20:57:00,77.5,73.8,30.08,North,-999,-999.0,-999.0,88,0.00,,,0.42,meteohub,2013-08-25 01:57:00,
2013-08-24 21:02:00,77.5,73.8,30.08,North,-999,-999.0,-999.0,88,0.00,,,0.42,meteohub,2013-08-25 02:02:00,
2013-08-24 21:07:00,77.5,73.8,30.08,North,-999,-999.0,-999.0,88,0.00,,,0.42,meteohub,2013-08-25 02:07:00,
2013-08-24 21:12:00,77.4,73.6,30.08,North,-999,-999.0,-999.0,88,0.00,,,0.42,meteohub,2013-08-25 02:12:00,
2013-08-24 21:17:00,77.4,73.6,30.08,North,-999,-999.0,-999.0,88,0.00,,,0.42,meteohub,2013-08-25 02:17:00,
2013-08-24 21:22:00,77.4,73.6,30.08,North,-999,-999.0,-999.0,88,0.00,,,0.42,meteohub,2013-08-25 02:22:00,
2013-08-24 21:27:00,77.4,73.6,30.08,North,-999,-999.0,-999.0,88,0.00,,,0.42,meteohub,2013-08-25 02:27:00,
2013-08-24 21:32:00,77.4,73.6,30.09,North,-999,-999.0,-999.0,88,0.00,,,0.42,meteohub,2013-08-25 02:32:00,
2013-08-24 21:37:00,77.4,73.6,30.09,North,-999,-999.0,-999.0,88,0.00,,,0.42,meteohub,2013-08-25 02:37:00,
2013-08-24 21:42:00,77.4,73.6,30.09,North,-999,-999.0,-999.0,88,0.00,,,0.42,meteohub,2013-08-25 02:42:00,
2013-08-24 21:47:00,77.4,73.6,30.09,North,-999,-999.0,-999.0,88,0.00,,,0.42,meteohub,2013-08-25 02:47:00,
2013-08-24 21:52:00,77.2,73.4,30.09,North,-999,-999.0,-999.0,88,0.00,,,0.42,meteohub,2013-08-25 02:52:00,
2013-08-24 21:57:00,77.2,73.4,30.09,North,-999,-999.0,-999.0,88,0.00,,,0.42,meteohub,2013-08-25 02:57:00,
2013-08-24 22:02:00,77.2,73.0,30.09,North,-999,-999.0,-999.0,87,0.00,,,0.42,meteohub,2013-08-25 03:02:00,
2013-08-24 22:07:00,77.4,73.6,30.09,North,-999,-999.0,-999.0,88,0.00,,,0.42,meteohub,2013-08-25 03:07:00,
2013-08-24 22:12:00,77.4,73.6,30.09,North,-999,-999.0,-999.0,88,0.00,,,0.42,meteohub,2013-08-25 03:12:00,
2013-08-24 22:17:00,77.4,73.6,30.10,North,-999,-999.0,-999.0,88,0.00,,,0.42,meteohub,2013-08-25 03:17:00,
2013-08-24 22:22:00,77.4,73.6,30.10,North,-999,-999.0,-999.0,88,0.00,,,0.42,meteohub,2013-08-25 03:22:00,
2013-08-24 22:27:00,77.4,73.6,30.10,North,-999,-999.0,-999.0,88,0.00,,,0.42,meteohub,2013-08-25 03:27:00,
2013-08-24 22:32:00,77.4,73.6,30.10,North,-999,-999.0,-999.0,88,0.00,,,0.42,meteohub,2013-08-25 03:32:00,
2013-08-24 22:37:00,77.2,73.4,30.10,North,-999,-999.0,-999.0,88,0.00,,,0.42,meteohub,2013-08-25 03:37:00,
2013-08-24 22:42:00,77.2,73.4,30.10,North,-999,-999.0,-999.0,88,0.00,,,0.42,meteohub,2013-08-25 03:42:00,
2013-08-24 22:47:00,77.2,73.0,30.10,North,-999,-999.0,-999.0,87,0.00,,,0.42,meteohub,2013-08-25 03:47:00,
2013-08-24 22:52:00,77.2,72.7,30.10,North,-999,-999.0,-999.0,86,0.00,,,0.42,meteohub,2013-08-25 03:52:00,
2013-08-24 22:57:00,77.2,72.7,30.10,North,-999,-999.0,-999.0,86,0.00,,,0.42,meteohub,2013-08-25 03:57:00,
2013-08-24 23:01:00,77.2,73.0,30.10,North,-999,-999.0,-999.0,87,0.00,,,0.42,meteohub,2013-08-25 04:01:00,
2013-08-24 23:04:00,77.2,73.0,30.10,North,-999,-999.0,-999.0,87,0.00,,,0.42,meteohub,2013-08-25 04:04:00,
2013-08-24 23:09:00,77.2,73.0,30.10,North,-999,-999.0,-999.0,87,0.00,,,0.42,meteohub,2013-08-25 04:09:00,
2013-08-24 23:14:00,77.0,72.9,30.10,North,-999,-999.0,-999.0,87,0.00,,,0.42,meteohub,2013-08-25 04:14:00,
2013-08-24 23:19:00,77.0,73.2,30.11,North,-999,-999.0,-999.0,88,0.00,,,0.42,meteohub,2013-08-25 04:19:00,
2013-08-24 23:24:00,77.0,73.2,30.11,North,-999,-999.0,-999.0,88,0.00,,,0.42,meteohub,2013-08-25 04:24:00,
2013-08-24 23:29:00,76.8,73.0,30.11,North,-999,-999.0,-999.0,88,0.00,,,0.42,meteohub,2013-08-25 04:29:00,
2013-08-24 23:34:00,76.8,73.0,30.10,North,-999,-999.0,-999.0,88,0.00,,,0.42,meteohub,2013-08-25 04:34:00,
2013-08-24 23:39:00,76.8,73.0,30.10,North,-999,-999.0,-999.0,88,0.00,,,0.42,meteohub,2013-08-25 04:39:00,
2013-08-24 23:44:00,76.8,73.4,30.10,North,-999,-999.0,-999.0,89,0.00,,,0.42,meteohub,2013-08-25 04:44:00,
2013-08-24 23:49:00,76.8,73.4,30.10,North,-999,-999.0,-999.0,89,0.00,,,0.42,meteohub,2013-08-25 04:49:00,
2013-08-24 23:54:00,76.8,73.4,30.10,North,-999,-999.0,-999.0,89,0.00,,,0.42,meteohub,2013-08-25 04:54:00,
2013-08-24 23:59:00,76.8,73.4,30.11,North,-999,-999.0,-999.0,89,0.00,,,0.42,meteohub,2013-08-25 04:59:00,